National Weather Service Hourly Weather Roundup
NOAA NWS Hourly Roundups by Site
NOAA NWS Hourly Roundups by Site
Regional Weather Roundup for Sacramento, CA

To Select Another Site Choose from List

Select Site:  

000
ASUS46 KSTO 191615
RWRCA

NORTHERN AND CENTRAL CA REGIONAL WEATHER ROUNDUP
NATIONAL WEATHER SERVICE SACRAMENTO CA
900 AM PDT SUN MAY 19 2019

NOTE: FAIR INDICATES FEW OR NO CLOUDS BELOW 12,000 FEET WITH NO
SIGNIFICANT WEATHER AND/OR OBSTRUCTIONS TO VISIBILITY.

CAZ001-003-191700-
NORTHWEST AREA

CITY           SKY/WX    TMP DP  RH WIND       PRES   REMARKS
CRESCENT CITY  SUNNY     56  46  69 E8        29.70R
UKIAH          CLOUDY    49  43  80 NE3       29.73R
$$

CAZ006-505>513-191700-
BAY AREA

CITY           SKY/WX    TMP DP  RH WIND       PRES   REMARKS
SANTA ROSA     PTSUNNY   50  50 100 CALM      29.74S
SAN RAFAEL     N/A      MM  MM  MM MISG
NAPA           CLOUDY    52  49  89 E6        29.76R
CONCORD        CLOUDY    51  46  83 SE6       29.77R
OAKLAND CITY   N/A       50  MM  MM MISG
OAKLAND        CLOUDY    54  48  80 S12       29.78R
SAN FRAN CITY  N/A       50  MM  84 MISG
SAN FRAN ARPT  PTSUNNY   55  48  77 VRB5      29.77R
LIVERMORE      CLOUDY    48  45  89 CALM      29.77R
HAYWARD        CLOUDY    51  48  89 SE9       29.78R
REDWOOD CITY   N/A       51  MM  98 MISG
MOFFETT ARPT   CLOUDY    53  53 100 E6        29.79R
SAN JOSE ARPT  CLOUDY    52  51  97 E5        29.78R
$$
CAZ034-037-514>518-191700-
CENTRAL COAST

CITY           SKY/WX    TMP DP  RH WIND       PRES   REMARKS
WATSONVILLE    CLOUDY    50  48  93 SE3       29.81R
SALINAS        RAIN      51  47  86 W14       29.83R FOG
MONTEREY       CLOUDY    50  46  86 CALM      29.81R
SAN LUIS OBISP PTSUNNY   59  49  69 SW6       29.87R
SANTA MARIA    PTSUNNY   61  51  70 W10       29.88R
$$
CAZ015-016-191700-
NORTHERN SACRAMENTO VALLEY

CITY           SKY/WX    TMP DP  RH WIND       PRES   REMARKS
REDDING        PTSUNNY   51  48  89 VRB6      29.73S
RED BLUFF      PTSUNNY   54  48  80 S9        29.74R
OROVILLE       CLOUDY    56  48  74 SE16      29.75R
$$
CAZ016>018-191700-
SOUTHERN SACRAMENTO VALLEY

CITY           SKY/WX    TMP DP  RH WIND       PRES   REMARKS
AUBURN         CLOUDY    50  48  93 SE5G12    29.76R
BEALE AFB      RAIN      50  46  87 SW18G28   29.75R
LINCOLN        CLOUDY    46  45  93 SW15G21   29.78R
MARYSVILLE     LGT RAIN  48  45  89 SW12      29.78R FOG
SAC INTL ARPT  RAIN      48  45  89 SE6       29.77S FOG
MATHER AIRPORT LGT RAIN  48  46  93 SW15G23   29.78R
DOWNTOWN SAC   N/A       47  MM  MM MISG
SAC EXEC ARPT  RAIN      47  47 100 E7        29.78S FOG
VACAVILLE      CLOUDY    49  48  97 S5        29.78R
TRAVIS AFB     CLOUDY    48  46  92 S5        29.77R
$$
CAZ019>021-191700-
SAN JOAQUIN VALLEY

CITY           SKY/WX    TMP DP  RH WIND       PRES   REMARKS
STOCKTON       RAIN      51  45  79 W10G20    29.80R
MODESTO        CLOUDY    56  48  74 S7        29.77R
MERCED         PTSUNNY   57  54  89 S9        29.78S
LEMOORE        SUNNY     61  53  75 SW13      29.82R
FRESNO         CLOUDY    55  52  89 S8        29.82R
HANFORD        PTSUNNY   59  54  83 S8        29.83R
PORTERVILLE    PTSUNNY   58  52  80 SE7       29.85R
BAKERSFIELD    CLOUDY    60  50  69 CALM      29.83R
$$
CAZ011-012-071-191700-
NORTHERN MOUNTAINS

CITY           SKY/WX    TMP DP  RH WIND       PRES   REMARKS
YREKA          CLOUDY    46  39  76 CALM      29.73R
MOUNT SHASTA   CLOUDY    40  37  89 CALM      29.71R
ALTURAS        PTSUNNY   45  37  73 SW3       29.69R
$$
CAZ011-012-071-191700-
SIERRA NEVADA MTNS

CITY           SKY/WX    TMP DP  RH WIND       PRES   REMARKS
BLUE CANYON    CLOUDY    32  31  96 S7        29.74R WCI  26
TAHOE VLY ARPT CLOUDY    35  30  82 SE5       29.68R WCI  31
MAMMOTH LAKES  PTSUNNY   38  28  66 E3        29.70F
$$


 

View Past Reports for Sacramento, CA.

Products Courtesy of NOAA-NWS
NWS Information Parsing Script by Ken True at Saratoga Weather - Script by SE Lincoln Weather.

powered by Cumulus v1.9.3 (1059)
Ambient Weather VWS v14.00
Top Contact Website Map Copyright © 2007 - 2019 Foresthillweather.com Never base important decisions on this or any weather information obtained from the Internet